Location: Mentone
(34.5413°N, 85.5351°W)
Time: 05:05:59
(UTC-06:00)

Tiros 1 despin weight - All Passes

Search period start: 24 January 2017 00:00
Search period end: 03 February 2017 00:00
Orbit: 595 x 644 km, 48.2° (Epoch: 22 January)

Date Brightness Start Highest point End Pass type
(mag) Time Alt. Az. Time Alt. Az. Time Alt. Az.
24 Jan - 00:55:42 10° SSW 01:00:09 45° SE 01:04:35 10° ENE night (unlit)
24 Jan - 02:37:33 10° W 02:41:50 35° NNW 02:46:06 10° NE night (unlit)
24 Jan - 04:21:42 10° NW 04:24:29 16° N 04:27:16 10° NNE visible
24 Jan - 06:04:30 10° NNW 06:07:32 17° NNE 06:10:31 10° NE visible
24 Jan - 07:45:36 10° NW 07:49:59 47° NNE 07:54:17 10° ESE daylight
24 Jan - 09:27:34 10° WNW 09:31:23 28° SW 09:35:09 10° SSE daylight
24 Jan - 23:33:37 10° SSE 23:36:04 14° SE 23:38:30 10° E night (unlit)
25 Jan - 01:12:28 10° SW 01:17:10 88° NW 01:21:50 10° NE night (unlit)
25 Jan - 02:55:31 10° WNW 02:59:16 23° NNW 03:02:58 10° NNE visible
25 Jan - 04:39:37 10° NW 04:42:10 14° N 04:44:42 10° NNE visible
25 Jan - 06:21:26 10° NNW 06:25:05 23° NNE 06:28:41 10° ENE daylight
25 Jan - 08:02:36 10° NW 08:07:09 90° SW 08:11:36 10° SE daylight
25 Jan - 09:46:16 10° WSW 09:48:10 12° SW 09:50:03 10° SSW daylight
25 Jan - 23:48:47 10° SSW 23:52:53 30° SE 23:56:57 10° ENE night (unlit)
26 Jan - 01:29:50 10° WSW 01:34:21 47° NNW 01:38:50 10° NE night (unlit)
26 Jan - 03:13:42 10° NW 03:16:49 17° NNW 03:19:55 10° NNE visible
26 Jan - 04:57:04 10° NNW 04:59:51 16° N 05:02:37 10° NE visible
26 Jan - 06:38:19 10° NW 06:42:31 35° NNE 06:46:38 10° E daylight
26 Jan - 08:19:53 10° WNW 08:24:09 42° SW 08:28:21 10° SSE daylight
27 Jan - 00:05:11 10° SW 00:09:49 63° SE 00:14:26 10° ENE night (unlit)
27 Jan - 01:47:37 10° W 01:51:41 29° NNW 01:55:44 10° NE night (unlit)
27 Jan - 03:31:49 10° NW 03:34:28 15° N 03:37:08 10° NNE visible
27 Jan - 05:14:08 10° NNW 05:17:29 19° NNE 05:20:47 10° ENE visible
27 Jan - 06:55:15 10° NW 06:59:46 63° NE 07:04:13 10° ESE daylight
27 Jan - 08:37:45 10° W 08:41:00 20° SW 08:44:13 10° S daylight
27 Jan - 22:42:12 10° S 22:45:38 20° SE 22:49:03 10° E night (unlit)
28 Jan - 00:22:14 10° WSW 00:26:54 66° NW 00:31:33 10° NE night (unlit)
28 Jan - 02:05:42 10° WNW 02:09:10 20° NNW 02:12:38 10° NNE night (unlit)
28 Jan - 03:49:32 10° NNW 03:52:10 15° N 03:54:47 10° NE visible
28 Jan - 05:31:02 10° NW 05:34:59 27° NNE 05:38:52 10° E visible
28 Jan - 07:12:21 10° WNW 07:16:52 65° SW 07:21:17 10° SE daylight
28 Jan - 22:58:04 10° SSW 23:02:29 42° SE 23:06:55 10° ENE night (unlit)
29 Jan - 00:39:47 10° W 00:44:09 37° NNW 00:48:29 10° NE night (unlit)
29 Jan - 02:23:52 10° NW 02:26:47 16° N 02:29:40 10° NNE night (unlit)
29 Jan - 04:06:47 10° NNW 04:09:50 17° NNE 04:12:52 10° NE visible
29 Jan - 05:47:55 10° NW 05:52:20 45° NNE 05:56:40 10° ESE visible
29 Jan - 07:29:50 10° WNW 07:33:47 30° SW 07:37:42 10° SSE daylight
29 Jan - 21:36:16 10° SSE 21:38:26 13° SE 21:40:36 10° E night (unlit)
29 Jan - 23:14:47 10° SW 23:19:29 87° SSE 23:24:12 10° NE night (unlit)
30 Jan - 00:57:43 10° WNW 01:01:33 24° NNW 01:05:22 10° NNE night (unlit)
30 Jan - 02:41:50 10° NW 02:44:28 15° N 02:47:05 10° NNE visible
30 Jan - 04:23:45 10° NNW 04:27:24 22° NNE 04:31:00 10° ENE visible
30 Jan - 06:04:55 10° NW 06:09:31 85° NE 06:14:02 10° SE visible
30 Jan - 07:48:17 10° W 07:50:35 14° SW 07:52:51 10° SSW daylight
30 Jan - 21:51:13 10° SSW 21:55:13 28° SE 21:59:14 10° ENE night (unlit)
30 Jan - 23:32:05 10° WSW 23:36:39 50° NNW 23:41:13 10° NE night (unlit)
31 Jan - 01:15:53 10° WNW 01:19:07 18° NNW 01:22:19 10° NNE night (unlit)
31 Jan - 02:59:20 10° NNW 03:02:09 16° N 03:04:57 10° NE visible
31 Jan - 04:40:38 10° NW 04:44:51 34° NNE 04:48:59 10° E visible
31 Jan - 06:22:09 10° WNW 06:26:32 46° SW 06:30:49 10° SSE daylight
31 Jan - 22:07:31 10° SW 22:12:08 59° SE 22:16:46 10° ENE night (unlit)
31 Jan - 23:49:50 10° W 23:53:58 30° NNW 23:58:07 10° NE night (unlit)
01 Feb - 01:33:59 10° NW 01:36:46 15° N 01:39:31 10° NNE night (unlit)
01 Feb - 03:16:26 10° NNW 03:19:47 19° NNE 03:23:06 10° ENE visible
01 Feb - 04:57:33 10° NW 05:02:07 60° NNE 05:06:36 10° ESE visible
01 Feb - 06:39:56 10° W 06:43:24 21° SW 06:46:49 10° S daylight
01 Feb - 20:44:43 10° S 20:47:59 19° SE 20:51:15 10° E night (unlit)
01 Feb - 22:24:31 10° WSW 22:29:13 70° NW 22:33:54 10° NE night (unlit)
02 Feb - 00:07:53 10° WNW 00:11:27 21° NNW 00:15:01 10° NNE night (unlit)
02 Feb - 01:51:46 10° NNW 01:54:27 15° N 01:57:08 10° NE night (unlit)
02 Feb - 03:33:21 10° NW 03:37:18 27° NNE 03:41:12 10° E visible
02 Feb - 05:14:38 10° WNW 05:19:13 70° SW 05:23:43 10° SE visible
02 Feb - 21:00:28 10° SSW 21:04:49 39° SE 21:09:12 10° ENE night (unlit)
02 Feb - 22:42:02 10° W 22:46:26 39° NNW 22:50:51 10° NE night (unlit)
